Regional Weather Roundup
Issued by NWS

Home | Current Version | Previous Version | Graphics & Text | Print | Product List | Glossary On
Versions: 1 2 3 4 5 6 7 8 9 10 11 12 13 14 15 16 17 18 19 20 21 22 23 24 25 26 27 28 29 30 31 32 33 34 35 36 37 38 39 40 41 42 43 44 45 46 47 48 49 50
000
ASUS43 KIND 191409
RWRIN

WEATHER ROUNDUP FOR INDIANA
NATIONAL WEATHER SERVICE INDIANAPOLIS IN
1000 AM EDT THU APR 19 2018

NOTE: "FAIR" INDICATES FEW OR NO CLOUDS BELOW 12,000 FEET WITH NO
SIGNIFICANT WEATHER AND/OR OBSTRUCTIONS TO VISIBILITY.

* - STATION DOES NOT REPORT WEATHER SUCH AS PRECIPITATION OR FOG.

+ - STATION NOT QUALITY CONTROLLED BY THE NATIONAL WEATHER SERVICE.
    USE DATA WITH CAUTION...ESPECIALLY DEWPOINT AND RELATIVE
    HUMIDITY OBSERVATIONS.

INZ001>003-010>013-019-020-191500-
NORTHWEST INDIANA

CITY           SKY/WX    TMP DP  RH WIND       PRES   REMARKS
GARY /AIRPORT/ MOSUNNY   41  34  75 NW12G29   30.27R
KNOX *+        FAIR      41  36  81 N13       30.21R
LA PORTE +     FAIR      40  33  76 NW14      30.22R WCI  32
MICHIGAN CITY+ FAIR      39  34  81 N10G21    30.24R WCI  32
MONTICELLO +   FAIR      40  32  73 N10       30.21R WCI  34
RENSSELAER +   FAIR      41  32  70 N13       30.24R
VALPARAISO     FAIR      42  34  73 N15       30.23R

$$

LMZ046-743>745-191500-
SOUTHERN LAKE MICHIGAN

STATION/POSITION TIME  TEMP    WIND        PRES    WAVE
                       AIR SEA DIR/SP/G            HT
                 (UTC) (F)     (DEG/KT/KT) (MB)    (FT)
BURNS HARBOR     1340   37     350/ 15/ 20 1024.4R
MICHIGAN CITY    1340   38     330/ 18/ 20   N/A

$$

INZ004-005-014>016-021>024-191500-
NORTH CENTRAL INDIANA

CITY           SKY/WX    TMP DP  RH WIND       PRES   REMARKS
ELKHART        FAIR      41  36  81 NW8       30.18R
GOSHEN         FAIR      40  31  70 NW17      30.18R WCI  31
LOGANSPORT +   FAIR      39  32  75 N13       30.21R WCI  32
PERU/GRISSOM   FAIR      40  38  94 N13       30.18R WCI  32
ROCHESTER +    FAIR      41  34  75 N10       30.20R
SOUTH BEND     FAIR      40  33  76 N13       30.21R WCI  32
WARSAW +       FAIR      37  32  81 NW13      30.18R WCI  29

$$

INZ006>009-017-018-025>027-191500-
NORTHEAST INDIANA

CITY           SKY/WX    TMP DP  RH WIND       PRES   REMARKS
ANGOLA *+      FAIR      37  32  81 NW10G17   30.14R WCI  30
AUBURN +       FAIR      37  32  81 NW12      30.16R WCI  30
FORT WAYNE     FAIR      40  33  76 N16       30.16R WCI  31
HUNTINGTON +   FAIR      38  32  78 N12       30.17R WCI  31
KENDALLVILLE + FAIR      37  29  71 N10G17    30.16R WCI  30

$$

INZ028-029-035-036-043>045-051>053-191500-
WEST CENTRAL INDIANA

CITY           SKY/WX    TMP DP  RH WIND       PRES   REMARKS
CRAWFORDSVL +  CLOUDY    37  31  81 N12       30.22R WCI  29
GREENCASTLE +  CLOUDY    36  32  87 N9        30.22R WCI  29
LAFAYETTE      FAIR      41  32  70 N13       30.23R
TERRE HAUTE    CLOUDY    39  33  79 N8        30.24R WCI  33

$$

INZ030>032-037>040-046>048-054>057-064-065-191500-
CENTRAL INDIANA

CITY           SKY/WX    TMP DP  RH WIND       PRES   REMARKS
ANDERSON       PTSUNNY   36  30  80 N12       30.18R WCI  27
COLUMBUS       CLOUDY    37 N/A N/A NW12      30.18R WCI  30
FRANKFORT +    PTSUNNY   41  34  74 N12G17    30.22R
GREENWOOD *+   CLOUDY    37  30  78 N14       30.19R WCI  28
INDIANAPOLIS   CLOUDY    38  29  70 N16       30.20R WCI  29
-EAGLE CREEK   CLOUDY    38  29  70 N16       30.19R WCI  29
KOKOMO +       FAIR      40  33  76 N13       30.20R WCI  32
MARION +       PTSUNNY   37  32  82 N10       30.18R WCI  30
MT COMFORT *+  CLOUDY    36  34  93 N16       30.19R WCI  26
SHELBYVILLE    CLOUDY    38  29  70 N17       30.18R WCI  28
ZIONSVILLE +   CLOUDY    35  31  87 N15       30.20R WCI  25

$$

INZ033-034-041-042-049-050-058-059-191500-
EAST CENTRAL INDIANA

CITY           SKY/WX    TMP DP  RH WIND       PRES   REMARKS
MUNCIE         PTSUNNY   39  32  76 N13       30.16R WCI  31
RICHMOND +     CLOUDY    34  32  93 NW13      30.13R WCI  25

$$

INZ060-061-067>069-081>083-085>088-191500-
SOUTHWEST INDIANA

CITY           SKY/WX    TMP DP  RH WIND       PRES   REMARKS
EVANSVILLE     CLOUDY    39  30  70 NW9       30.27R WCI  33
HUNTINGBURG +  CLOUDY    38  30  73 NW13G20   30.24R WCI  30
WASHINGTON +   CLOUDY    38  30  75 N15       30.24R WCI  29

$$

INZ062-063-066-070>080-084-089>092-191500-
SOUTH CENTRAL AND SOUTHEAST INDIANA

CITY           SKY/WX    TMP DP  RH WIND       PRES   REMARKS
BATESVILLE +   CLOUDY    36  36 100 MISG      30.14R
BEDFORD +      CLOUDY    36  30  80 NW8       30.19R WCI  29
BLOOMINGTON    CLOUDY    36  32  85 W8        30.20R WCI  30
FRENCH LICK *+ CLOUDY    36  28  75 NW8       30.22R WCI  29
MADISON *+     CLOUDY    37  30  75 NW13G20   30.19R WCI  29
NORTH VERNON + CLOUDY    36  30  80 NW12      30.18R WCI  27
SEYMOUR +      CLOUDY    39  30  70 NW12      30.19R WCI  32

$$





USA.gov is the U.S. government's official web portal to all federal, state and local government web resources and services.